Location: Caltech
(34.1382°N, 118.1253°W)
Time: 01:39:32
(UTC-07:00)

Iridium 94 - Visible Passes

Search period start: 23 October 2014 00:00
Search period end: 02 November 2014 00:00
Orbit: 776 x 779 km, 86.4° (Epoch: 22 October)

Date Brightness Start Highest point End Pass type
(mag) Time Alt. Az. Time Alt. Az. Time Alt. Az.
23 Oct 7.4 05:48:25 10° NNE 05:53:05 32° E 05:57:43 10° SE visible
23 Oct 5.5 18:40:39 10° S 18:45:49 77° E 18:51:02 10° N visible
24 Oct 8.4 05:15:59 10° NE 05:19:20 17° ENE 05:22:40 10° ESE visible
24 Oct 8.3 19:49:36 10° SW 19:53:14 19° W 19:56:52 10° NW visible
25 Oct 5.5 06:21:33 10° N 06:26:47 86° W 06:32:00 10° S visible
25 Oct 7.2 19:14:45 10° SSW 19:19:30 36° W 19:24:17 10° NNW visible
26 Oct 6.6 05:48:12 10° N 05:53:15 48° E 05:58:15 10° SSE visible
26 Oct 5.9 18:40:44 10° S 18:45:54 71° W 18:51:06 10° N visible
27 Oct 7.8 05:15:18 10° NNE 05:19:34 25° E 05:23:49 10° SE visible
27 Oct 8.7 19:51:20 10° WSW 19:53:30 13° WNW 19:55:41 10° NW visible
28 Oct 8.6 04:43:25 10° NE 04:45:46 13° ENE 04:48:07 10° ESE visible
28 Oct 5.6 06:21:44 10° N 06:26:50 57° W 06:31:55 10° SSW visible
28 Oct 7.9 19:15:31 10° SW 19:19:42 24° W 19:23:54 10° NNW visible
29 Oct 5.8 05:48:08 10° N 05:53:21 73° E 05:58:33 10° S visible
29 Oct 6.7 18:41:02 10° SSW 18:46:01 47° W 18:51:02 10° N visible
30 Oct 7.0 05:14:56 10° NNE 05:19:45 37° E 05:24:33 10° SSE visible
31 Oct 8.1 04:42:19 10° NNE 04:46:02 20° E 04:49:45 10° SE visible
31 Oct 6.0 06:22:03 10° NNW 06:26:50 38° W 06:31:37 10° SSW visible
31 Oct 8.4 19:16:42 10° WSW 19:19:56 17° WNW 19:23:11 10° NW visible
01 Nov 5.4 05:48:13 10° N 05:53:25 75° W 05:58:37 10° S visible
01 Nov 7.6 18:41:35 10° SW 18:46:10 31° W 18:50:47 10° NNW visible
